Radiation Dose at Monitoring Post of Fukushima Daini Nuclear Power Station
Date,Time,MP-1(microSv/h),MP-2(microSv/h),MP-3(microSv/h),MP-4(microSv/h),MP-5(microSv/h),MP-6(microSv/h),MP-7(microSv/h),Wind Direction,Wind Velocity(m/s),Rain
2018/03/11,00:00,0.318,0.198,0.321,0.306,0.297,0.161,0.097,north,4.7,No
2018/03/11,00:10,0.318,0.198,0.322,0.307,0.296,0.162,0.098,north,5.2,No
2018/03/11,00:20,0.320,0.197,0.320,0.306,0.296,0.161,0.098,north,4.7,No
2018/03/11,00:30,0.318,0.198,0.322,0.306,0.297,0.161,0.098,north,5.3,No
2018/03/11,00:40,0.317,0.199,0.321,0.306,0.297,0.161,0.098,north-northwest,4.2,No
2018/03/11,00:50,0.317,0.199,0.320,0.304,0.298,0.162,0.098,north,4.2,No
2018/03/11,01:00,0.318,0.198,0.322,0.305,0.297,0.161,0.098,north,4.1,No
2018/03/11,01:10,0.318,0.199,0.321,0.305,0.296,0.161,0.097,north,3.5,No
2018/03/11,01:20,0.318,0.198,0.322,0.308,0.298,0.161,0.097,north,4.2,No
2018/03/11,01:30,0.319,0.198,0.321,0.305,0.297,0.161,0.098,north,3.6,No
2018/03/11,01:40,0.319,0.198,0.320,0.306,0.299,0.162,0.097,north,4.4,No
2018/03/11,01:50,0.318,0.199,0.321,0.305,0.299,0.161,0.097,north,3.1,No
2018/03/11,02:00,0.318,0.198,0.320,0.305,0.297,0.161,0.098,north,1.4,No
2018/03/11,02:10,0.318,0.198,0.320,0.306,0.296,0.162,0.098,north,2.4,No
2018/03/11,02:20,0.319,0.198,0.323,0.306,0.297,0.161,0.098,north,2.6,No
2018/03/11,02:30,0.318,0.198,0.322,0.305,0.298,0.161,0.097,north-northwest,2.8,No
2018/03/11,02:40,0.317,0.197,0.321,0.306,0.298,0.161,0.098,north,3.3,No
2018/03/11,02:50,0.318,0.197,0.321,0.306,0.298,0.161,0.098,north,3.5,No
2018/03/11,03:00,0.318,0.199,0.321,0.306,0.297,0.162,0.097,north-northwest,3.2,No
2018/03/11,03:10,0.318,0.197,0.321,0.304,0.298,0.161,0.097,north-northwest,2.0,No
2018/03/11,03:20,0.317,0.197,0.323,0.304,0.297,0.161,0.098,north,2.5,No
2018/03/11,03:30,0.317,0.197,0.322,0.307,0.297,0.161,0.098,north,2.3,No
2018/03/11,03:40,0.317,0.197,0.321,0.306,0.297,0.161,0.096,north-northwest,1.0,No
2018/03/11,03:50,0.318,0.199,0.322,0.305,0.296,0.162,0.097,north,1.3,No
2018/03/11,04:00,0.317,0.198,0.322,0.305,0.297,0.160,0.097,-,CALM,No
2018/03/11,04:10,0.317,0.198,0.322,0.304,0.298,0.161,0.097,north,0.9,No
2018/03/11,04:20,0.317,0.197,0.323,0.305,0.297,0.161,0.098,-,CALM,No
2018/03/11,04:30,0.318,0.198,0.321,0.306,0.296,0.162,0.098,north-northwest,0.9,No
2018/03/11,04:40,0.319,0.199,0.320,0.306,0.296,0.162,0.098,-,CALM,No
2018/03/11,04:50,0.318,0.197,0.321,0.305,0.298,0.161,0.097,north-northeast,0.7,No
2018/03/11,05:00,0.318,0.197,0.321,0.306,0.297,0.161,0.098,north,1.2,No
2018/03/11,05:10,0.319,0.198,0.321,0.306,0.298,0.161,0.097,north,1.7,No
2018/03/11,05:20,0.318,0.198,0.322,0.306,0.297,0.162,0.097,northwest,0.7,No
2018/03/11,05:30,0.317,0.198,0.320,0.304,0.297,0.161,0.097,north,1.4,No
2018/03/11,05:40,0.318,0.198,0.323,0.306,0.298,0.161,0.098,north-northwest,1.8,No
2018/03/11,05:50,0.317,0.198,0.320,0.306,0.297,0.162,0.098,north,1.5,No
2018/03/11,06:00,0.318,0.198,0.321,0.305,0.297,0.162,0.097,north,1.6,No
2018/03/11,06:10,0.317,0.199,0.322,0.306,0.297,0.162,0.098,north,2.1,No
2018/03/11,06:20,0.317,0.199,0.320,0.306,0.296,0.162,0.098,north,3.1,No
2018/03/11,06:30,0.318,0.199,0.322,0.305,0.297,0.162,0.098,north,2.6,No
2018/03/11,06:40,0.318,0.199,0.322,0.307,0.298,0.162,0.098,north,2.7,No
2018/03/11,06:50,0.317,0.198,0.322,0.305,0.297,0.162,0.097,north,2.0,No
2018/03/11,07:00,0.316,0.198,0.321,0.304,0.296,0.161,0.097,north,2.0,No
2018/03/11,07:10,0.318,0.199,0.321,0.305,0.296,0.160,0.096,north,1.1,No
2018/03/11,07:20,0.316,0.198,0.322,0.305,0.297,0.161,0.097,-,CALM,No
2018/03/11,07:30,0.318,0.198,0.321,0.305,0.296,0.160,0.097,-,CALM,No
2018/03/11,07:40,0.319,0.198,0.320,0.306,0.297,0.161,0.097,-,CALM,No
2018/03/11,07:50,0.317,0.198,0.320,0.305,0.297,0.161,0.098,-,CALM,No
2018/03/11,08:00,0.317,0.198,0.321,0.305,0.298,0.161,0.097,-,CALM,No
2018/03/11,08:10,0.317,0.198,0.321,0.305,0.297,0.161,0.097,-,CALM,No
2018/03/11,08:20,0.318,0.197,0.321,0.306,0.298,0.160,0.098,-,CALM,No
2018/03/11,08:30,0.318,0.198,0.321,0.303,0.297,0.161,0.096,-,CALM,No
2018/03/11,08:40,0.318,0.197,0.320,0.304,0.298,0.161,0.096,-,CALM,No
2018/03/11,08:50,0.316,0.197,0.320,0.304,0.297,0.162,0.097,east,1.2,No
2018/03/11,09:00,0.318,0.198,0.320,0.304,0.298,0.161,0.097,southeast,0.9,No
2018/03/11,09:10,0.318,0.197,0.320,0.306,0.297,0.161,0.097,east-southeast,1.5,No
2018/03/11,09:20,0.317,0.198,0.320,0.306,0.297,0.161,0.098,southeast,1.3,No
2018/03/11,09:30,0.317,0.199,0.319,0.306,0.298,0.161,0.097,southeast,1.5,No
2018/03/11,09:40,0.318,0.197,0.320,0.305,0.297,0.161,0.097,east-southeast,1.4,No
2018/03/11,09:50,0.316,0.199,0.321,0.307,0.297,0.162,0.097,east-southeast,1.3,No
2018/03/11,10:00,0.318,0.198,0.321,0.305,0.298,0.162,0.097,southeast,1.2,No
2018/03/11,10:10,0.318,0.199,0.321,0.305,0.298,0.161,0.097,southeast,0.7,No
2018/03/11,10:20,0.318,0.198,0.320,0.306,0.299,0.161,0.096,-,CALM,No
2018/03/11,10:30,0.317,0.199,0.320,0.304,0.300,0.161,0.098,south-southeast,0.8,No
2018/03/11,10:40,0.318,0.197,0.321,0.305,0.298,0.161,0.097,-,CALM,No
2018/03/11,10:50,0.318,0.198,0.321,0.307,0.298,0.162,0.097,east-southeast,1.1,No
2018/03/11,11:00,0.318,0.198,0.321,0.305,0.299,0.161,0.097,southeast,0.6,No
2018/03/11,11:10,0.317,0.199,0.322,0.305,0.298,0.161,0.097,east-southeast,0.6,No
2018/03/11,11:20,0.319,0.197,0.320,0.307,0.299,0.161,0.098,-,CALM,No
2018/03/11,11:30,0.317,0.199,0.320,0.306,0.298,0.161,0.096,-,CALM,No
2018/03/11,11:40,0.317,0.200,0.322,0.306,0.300,0.162,0.098,-,CALM,No
2018/03/11,11:50,0.317,0.198,0.320,0.307,0.298,0.161,0.097,-,CALM,No
2018/03/11,12:00,0.317,0.198,0.320,0.306,0.298,0.161,0.097,-,CALM,No
2018/03/11,12:10,0.318,0.198,0.322,0.305,0.298,0.161,0.098,-,CALM,No
2018/03/11,12:20,0.318,0.198,0.321,0.305,0.298,0.160,0.098,east,0.6,No
2018/03/11,12:30,0.318,0.199,0.321,0.307,0.298,0.161,0.098,-,CALM,No
2018/03/11,12:40,0.318,0.199,0.321,0.306,0.298,0.161,0.098,northeast,1.1,No
2018/03/11,12:50,0.318,0.198,0.321,0.307,0.298,0.162,0.097,north,1.7,No
2018/03/11,13:00,0.317,0.198,0.321,0.307,0.299,0.161,0.098,north,1.2,Yes
2018/03/11,13:10,0.319,0.200,0.321,0.306,0.298,0.162,0.099,north,1.8,Yes
2018/03/11,13:20,0.319,0.199,0.323,0.306,0.300,0.162,0.098,east-northeast,0.6,Yes
2018/03/11,13:30,0.319,0.199,0.322,0.308,0.299,0.163,0.099,-,CALM,No
2018/03/11,13:40,0.318,0.200,0.321,0.307,0.299,0.163,0.099,-,CALM,No
2018/03/11,13:50,0.320,0.199,0.323,0.306,0.299,0.162,0.098,east-southeast,1.3,No
2018/03/11,14:00,0.318,0.199,0.322,0.307,0.297,0.162,0.097,southeast,1.6,No
2018/03/11,14:10,0.319,0.199,0.321,0.307,0.298,0.162,0.098,southeast,2.6,No
2018/03/11,14:20,0.319,0.198,0.321,0.307,0.300,0.162,0.098,southeast,2.9,No
2018/03/11,14:30,0.318,0.198,0.319,0.307,0.298,0.162,0.098,southeast,2.2,No
2018/03/11,14:40,0.318,0.199,0.320,0.305,0.300,0.162,0.098,southeast,2.8,No
2018/03/11,14:50,0.319,0.199,0.319,0.305,0.298,0.162,0.098,southeast,2.8,No
2018/03/11,15:00,0.316,0.198,0.321,0.308,0.299,0.162,0.097,south-southeast,3.2,No
2018/03/11,15:10,0.318,0.198,0.322,0.306,0.300,0.161,0.098,south-southeast,3.1,No
2018/03/11,15:20,0.317,0.198,0.322,0.306,0.299,0.161,0.097,southeast,2.9,No
2018/03/11,15:30,0.318,0.199,0.321,0.307,0.300,0.161,0.097,south-southeast,3.8,No
2018/03/11,15:40,0.317,0.199,0.323,0.308,0.299,0.162,0.098,south-southeast,3.5,No
2018/03/11,15:50,0.316,0.198,0.321,0.307,0.299,0.162,0.097,south-southeast,3.8,No
2018/03/11,16:00,0.319,0.199,0.321,0.306,0.300,0.162,0.098,south,4.6,No
2018/03/11,16:10,0.318,0.199,0.322,0.308,0.300,0.162,0.097,south,4.9,No
2018/03/11,16:20,0.318,0.200,0.322,0.307,0.299,0.161,0.097,south,5.0,No
2018/03/11,16:30,0.319,0.198,0.323,0.307,0.299,0.162,0.097,south,4.3,No
2018/03/11,16:40,0.319,0.199,0.322,0.307,0.297,0.162,0.098,south,4.8,No
2018/03/11,16:50,0.318,0.198,0.322,0.308,0.301,0.161,0.097,south-southwest,4.4,No
2018/03/11,17:00,0.319,0.199,0.322,0.305,0.299,0.162,0.097,south-southwest,3.6,No
2018/03/11,17:10,0.320,0.199,0.323,0.306,0.299,0.162,0.097,south-southwest,3.2,No
2018/03/11,17:20,0.317,0.199,0.322,0.308,0.299,0.162,0.098,south-southwest,3.2,No
2018/03/11,17:30,0.320,0.198,0.322,0.306,0.299,0.161,0.097,west,3.1,No
2018/03/11,17:40,0.318,0.200,0.322,0.307,0.299,0.162,0.098,west-northwest,2.7,No
2018/03/11,17:50,0.316,0.199,0.323,0.307,0.298,0.162,0.098,west-northwest,3.9,No
2018/03/11,18:00,0.319,0.198,0.321,0.307,0.299,0.162,0.099,west-northwest,3.2,No
2018/03/11,18:10,0.319,0.199,0.321,0.306,0.298,0.162,0.099,west-southwest,4.8,No
2018/03/11,18:20,0.318,0.200,0.323,0.307,0.297,0.162,0.098,west-southwest,6.5,No
2018/03/11,18:30,0.319,0.199,0.323,0.308,0.299,0.162,0.098,west,5.1,No
2018/03/11,18:40,0.320,0.199,0.322,0.307,0.297,0.161,0.097,west-northwest,6.0,No
2018/03/11,18:50,0.318,0.199,0.323,0.306,0.298,0.162,0.098,west,4.9,No
2018/03/11,19:00,0.317,0.201,0.323,0.306,0.298,0.162,0.097,west-northwest,4.2,No
2018/03/11,19:10,0.318,0.198,0.322,0.308,0.299,0.162,0.098,northwest,4.5,No
2018/03/11,19:20,0.319,0.199,0.322,0.308,0.299,0.163,0.098,northwest,6.5,No
2018/03/11,19:30,0.319,0.199,0.323,0.308,0.299,0.162,0.098,northwest,6.1,No
2018/03/11,19:40,0.319,0.200,0.322,0.307,0.300,0.161,0.098,northwest,6.7,No
2018/03/11,19:50,0.319,0.198,0.322,0.306,0.300,0.162,0.098,northwest,5.0,No
2018/03/11,20:00,0.318,0.198,0.323,0.308,0.298,0.162,0.098,west-northwest,7.0,No
2018/03/11,20:10,0.320,0.199,0.322,0.307,0.298,0.161,0.098,west-northwest,6.8,No
2018/03/11,20:20,0.318,0.199,0.322,0.307,0.299,0.162,0.098,northwest,9.8,No
2018/03/11,20:30,0.318,0.199,0.321,0.308,0.298,0.162,0.098,northwest,11.4,No
2018/03/11,20:40,0.319,0.199,0.322,0.307,0.298,0.163,0.098,northwest,12.9,No
2018/03/11,20:50,0.319,0.198,0.323,0.308,0.300,0.162,0.098,northwest,12.6,No
2018/03/11,21:00,0.318,0.200,0.322,0.308,0.300,0.162,0.097,northwest,12.9,No
2018/03/11,21:10,0.319,0.199,0.322,0.308,0.299,0.162,0.098,west-northwest,13.6,No
2018/03/11,21:20,0.320,0.199,0.323,0.309,0.300,0.162,0.097,west-northwest,7.3,No
2018/03/11,21:30,0.320,0.200,0.323,0.308,0.301,0.162,0.098,west-northwest,7.7,No
2018/03/11,21:40,0.319,0.200,0.325,0.307,0.300,0.163,0.097,west-northwest,7.0,No
2018/03/11,21:50,0.320,0.200,0.323,0.307,0.301,0.163,0.098,west,3.9,No
2018/03/11,22:00,0.320,0.201,0.324,0.308,0.301,0.163,0.098,west-southwest,2.2,No
2018/03/11,22:10,0.321,0.200,0.322,0.309,0.300,0.162,0.097,west,3.8,No
2018/03/11,22:20,0.319,0.200,0.323,0.307,0.300,0.163,0.098,west,6.2,No
2018/03/11,22:30,0.321,0.201,0.324,0.308,0.299,0.163,0.098,west-northwest,5.3,No
2018/03/11,22:40,0.322,0.199,0.322,0.307,0.299,0.163,0.098,west-northwest,4.7,No
2018/03/11,22:50,0.319,0.199,0.324,0.309,0.299,0.163,0.097,west-northwest,5.9,No
2018/03/11,23:00,0.319,0.199,0.324,0.308,0.299,0.163,0.098,west-northwest,6.3,No
2018/03/11,23:10,0.320,0.199,0.324,0.307,0.300,0.163,0.098,west-northwest,5.9,No
2018/03/11,23:20,0.321,0.200,0.322,0.308,0.299,0.162,0.098,west-northwest,2.6,No
2018/03/11,23:30,0.321,0.199,0.323,0.308,0.300,0.163,0.098,west-northwest,3.9,No
2018/03/11,23:40,0.319,0.200,0.323,0.307,0.299,0.163,0.098,west-northwest,4.8,No
2018/03/11,23:50,0.320,0.200,0.325,0.308,0.299,0.162,0.098,west-northwest,4.0,No
